Location: Atherton
(17.2661°S, 145.4859°E)
Time: 18:15:45
(UTC+10:00)

ACS3 Solar Sail - Pass Details

Date: 29 May 2025
Orbit: 920 x 1019 km, 97.5° (Epoch: 20 June)

Event Time Altitude Azimuth Distance (km) Brightness Sun altitude
Rises 18:53:11 0° 194° (SSW) 3,780 4.8 -14.8°
Reaches altitude 10° 18:56:31 10° 211° (SSW) 2,823 4.4 -15.5°
Maximum altitude 19:00:40 19° 252° (WSW) 2,248 4.4 -16.5°
Drops below altitude 10° 19:04:49 10° 293° (WNW) 2,793 5.5 -17.4°
Sets 19:08:06 0° 311° (NW) 3,724 6.1 -18.1°
